Location: Toronto
(43.6672°N, 79.4170°W)
Time: 05:37:16
(UTC-04:00)

ISS - Visible Passes

Search period start: 26 May 2015 00:00
Search period end: 05 June 2015 00:00
Orbit: 399 x 404 km, 51.6° (Epoch: 26 May)

Date Brightness Start Highest point End Pass type
(mag) Time Alt. Az. Time Alt. Az. Time Alt. Az.
26 May -1.3 01:45:58 27° NE 01:45:58 27° NE 01:47:42 10° NE visible
26 May -0.8 03:18:52 10° WNW 03:21:26 21° N 03:24:00 10° NE visible
26 May -0.9 04:55:52 10° NW 04:58:36 24° NNE 05:01:21 10° ENE visible
27 May -0.4 00:54:13 12° ENE 00:54:13 12° ENE 00:54:30 10° ENE visible
27 May -1.1 02:26:46 19° NW 02:27:59 24° NNW 02:30:44 10° NE visible
27 May -0.7 04:02:36 10° NW 04:05:09 21° N 04:07:44 10° ENE visible
28 May -1.4 01:34:52 30° N 01:34:52 30° N 01:37:33 10° NE visible
28 May -0.6 03:09:12 10° NW 03:11:41 20° N 03:14:09 10° NE visible
28 May -1.4 04:45:45 10° NW 04:48:45 33° NNE 04:51:47 10° E visible
29 May -1.3 00:42:45 25° NE 00:42:45 25° NE 00:44:22 10° NE visible
29 May -0.6 02:15:39 10° WNW 02:18:11 20° N 02:20:42 10° NE visible
29 May -0.9 03:52:33 10° NW 03:55:20 25° NNE 03:58:08 10° ENE visible
29 May -1.2 23:50:02 20° NE 23:50:02 20° NE 23:51:10 10° NE visible
30 May -0.9 01:22:29 13° WNW 01:24:41 23° NNW 01:27:23 10° NE visible
30 May -0.6 02:59:16 10° NW 03:01:52 21° N 03:04:27 10° ENE visible
30 May -2.6 04:35:33 10° NW 04:38:46 56° NNE 04:41:59 10° ESE visible
30 May -3.4 22:51:28 10° SW 22:54:38 58° SE 22:57:51 10° ENE visible
31 May -1.3 00:28:20 10° W 00:31:14 29° NNW 00:34:09 10° NE visible
31 May -0.5 02:05:52 10° NW 02:08:21 20° N 02:10:50 10° NE visible
31 May -1.6 03:42:20 10° NW 03:45:24 36° NNE 03:48:28 10° E visible
31 May -2.6 21:58:35 10° SSW 22:01:28 30° SE 22:04:23 10° ENE visible
31 May -2.0 23:34:42 10° W 23:37:49 41° NNW 23:40:55 10° NE visible
01 Jun -0.5 01:12:19 10° NW 01:14:49 20° N 01:17:19 10° NE visible
01 Jun -1.0 02:49:07 10° NW 02:51:57 27° NNE 02:54:48 10° ENE visible
01 Jun -3.5 04:25:22 10° WNW 04:28:37 72° SW 04:31:52 10° SE visible
01 Jun -3.0 22:41:13 10° WSW 22:44:26 67° NNW 22:47:41 10° NE visible
02 Jun -0.7 00:18:39 10° WNW 00:21:17 22° N 00:23:56 10° NE visible
02 Jun -0.7 01:55:50 10° NW 01:58:27 22° N 02:01:05 10° ENE visible
02 Jun -2.9 03:32:04 10° NW 03:35:19 64° NNE 03:38:33 10° ESE visible
02 Jun -3.4 21:47:56 10° SW 21:51:08 68° SE 21:54:23 10° ENE visible
02 Jun -1.1 23:24:56 10° WNW 23:27:47 27° NNW 23:30:38 10° NE visible
03 Jun -0.5 01:02:25 10° NW 01:04:54 20° N 01:07:24 10° NE visible
03 Jun -1.9 02:38:49 10° NW 02:41:55 39° NNE 02:45:01 10° E visible
03 Jun -2.7 04:15:20 10° WNW 04:18:18 32° SW 04:21:15 10° SSE visible
03 Jun -1.7 22:31:15 10° W 22:34:18 37° NNW 22:37:22 10° NE visible
04 Jun -0.5 00:08:51 10° NW 00:11:20 20° N 00:13:49 10° NE visible
04 Jun -1.2 01:45:35 10° NW 01:48:27 28° NNE 01:51:21 10° E visible
04 Jun -3.4 03:21:50 10° WNW 03:25:04 62° SW 03:25:48 45° SSE visible
04 Jun -2.7 21:37:40 10° WSW 21:40:53 59° NNW 21:44:06 10° NE visible
04 Jun -0.6 23:15:10 10° WNW 23:17:46 21° N 23:20:21 10° NE visible
